Satellite-Ground Cal/Val Region Overpasses Predictions

Prediction of Satellite NPP Overpassing Cal/Val Region: PacNW

Region Location: (Latitude: 10.00, Longitude: 139.50) to (Latitude: 22.70, Longitude: 165.60).

Table of predicted overpasses for the next 14.0 days since TLE Epoch: 2/9/2018
Interval Starting Time Starting Location Ending Time Ending Location
1 02/10/2018 02:26:24 ( 10.01, 163.08) 02/10/2018 02:30:00 ( 22.69, 160.06)
2 02/10/2018 14:58:17 ( 22.68, 160.31) 02/10/2018 15:01:53 ( 10.00, 157.29)
3 02/11/2018 02:10:05 ( 19.59, 165.59) 02/11/2018 02:10:57 ( 22.64, 164.83)
4 02/11/2018 03:48:52 ( 10.03, 142.46) 02/11/2018 03:52:24 ( 22.47, 139.50)
5 02/11/2018 14:39:15 ( 22.68, 165.07) 02/11/2018 14:42:50 ( 10.05, 162.07)
6 02/11/2018 16:20:45 ( 22.67, 139.69) 02/11/2018 16:20:58 ( 21.90, 139.50)
7 02/12/2018 03:29:49 ( 10.04, 147.22) 02/12/2018 03:33:24 ( 22.66, 144.22)
8 02/12/2018 16:01:42 ( 22.66, 144.45) 02/12/2018 16:05:17 ( 10.03, 141.45)
9 02/13/2018 03:10:47 ( 10.05, 151.98) 02/13/2018 03:14:22 ( 22.67, 148.97)
10 02/13/2018 15:42:40 ( 22.65, 149.21) 02/13/2018 15:46:15 ( 10.02, 146.21)
11 02/14/2018 02:51:44 ( 10.06, 156.73) 02/14/2018 02:55:19 ( 22.68, 153.73)
12 02/14/2018 15:23:36 ( 22.69, 153.98) 02/14/2018 15:27:12 ( 10.01, 150.96)
13 02/15/2018 02:32:41 ( 10.01, 161.51) 02/15/2018 02:36:17 ( 22.69, 158.49)
14 02/15/2018 15:04:34 ( 22.68, 158.74) 02/15/2018 15:08:10 ( 10.00, 155.72)
15 02/16/2018 02:14:29 ( 12.96, 165.59) 02/16/2018 02:17:15 ( 22.70, 163.25)
16 02/16/2018 03:55:09 ( 10.03, 140.89) 02/16/2018 03:56:50 ( 15.96, 139.51)
17 02/16/2018 14:45:31 ( 22.67, 163.50) 02/16/2018 14:49:06 ( 10.05, 160.49)
18 02/17/2018 03:36:06 ( 10.04, 145.65) 02/17/2018 03:39:41 ( 22.66, 142.64)
19 02/17/2018 14:29:39 ( 11.51, 165.59) 02/17/2018 14:30:04 ( 10.04, 165.25)
20 02/17/2018 16:07:59 ( 22.65, 142.88) 02/17/2018 16:11:34 ( 10.03, 139.88)
21 02/18/2018 03:17:04 ( 10.05, 150.40) 02/18/2018 03:20:39 ( 22.67, 147.40)
22 02/18/2018 15:48:56 ( 22.64, 147.64) 02/18/2018 15:52:31 ( 10.02, 144.63)
23 02/19/2018 02:58:00 ( 10.00, 155.18) 02/19/2018 03:01:36 ( 22.68, 152.16)
24 02/19/2018 15:29:53 ( 22.69, 152.41) 02/19/2018 15:33:29 ( 10.01, 149.39)
25 02/20/2018 02:38:58 ( 10.01, 159.93) 02/20/2018 02:42:34 ( 22.69, 156.92)
26 02/20/2018 15:10:50 ( 22.68, 157.17) 02/20/2018 15:14:25 ( 10.06, 154.16)
27 02/21/2018 02:19:55 ( 10.03, 164.69) 02/21/2018 02:23:30 ( 22.65, 161.69)
28 02/21/2018 14:51:48 ( 22.67, 161.92) 02/21/2018 14:55:23 ( 10.04, 158.92)
29 02/22/2018 03:42:23 ( 10.05, 144.07) 02/22/2018 03:45:58 ( 22.67, 141.07)
30 02/22/2018 14:34:02 ( 18.20, 165.59) 02/22/2018 14:36:21 ( 10.03, 163.68)
31 02/22/2018 16:14:15 ( 22.64, 141.31) 02/22/2018 16:16:22 ( 15.19, 139.50)
32 02/23/2018 03:23:19 ( 10.00, 148.84) 02/23/2018 03:26:55 ( 22.68, 145.83)


NCC Satellite Cal/Val Overpasses Prediction Service
